This is the latest recevied weather packets stored in our database for station/object KC5DAQ-28. If no packets are shown the sender has not sent any weather packets the latest 10 day(s).
| Time | Temp. | Humidity | Pressure | Rain* | Wind** | Luminosity | Snow |
|---|---|---|---|---|---|---|---|
| 1777832883 | 25.56° C | 40% | 1015.6 hPa | 0 mm | - | 1131 W/m² | - |
| 1777832822 | 25.56° C | 40% | 1015.6 hPa | 0 mm | - | 1131 W/m² | - |
| 1777832762 | 26.11° C | 44% | 1015.6 hPa | 0 mm | - | 1127 W/m² | - |
| 1777832704 | 26.11° C | 43% | 1015.6 hPa | 0 mm | - | 1132 W/m² | - |
| 1777832643 | 26.11° C | 43% | 1015.6 hPa | 0 mm | - | 1132 W/m² | - |
| 1777832583 | 26.11° C | 42% | 1015.6 hPa | 0 mm | - | 1139 W/m² | - |
| 1777832523 | 26.11° C | 44% | 1015.6 hPa | 0 mm | - | 1139 W/m² | - |
| 1777832463 | 26.11° C | 45% | 1015.6 hPa | 0 mm | - | 1141 W/m² | - |
| 1777832404 | 26.11° C | 46% | 1015.6 hPa | 0 mm | - | 1025 W/m² | - |
| 1777832342 | 25.56° C | 46% | 1015.7 hPa | 0 mm | - | 1025 W/m² | - |
| 1777832283 | 25.56° C | 46% | 1015.7 hPa | 0 mm | - | 1025 W/m² | - |
| 1777832223 | 25.56° C | 44% | 1015.7 hPa | 0 mm | - | 1025 W/m² | - |
| 1777832163 | 25.56° C | 43% | 1015.7 hPa | 0 mm | - | 1025 W/m² | - |
| 1777832103 | 25° C | 43% | 1015.9 hPa | 0 mm | - | 1025 W/m² | - |
| 1777832044 | 25° C | 44% | 1015.8 hPa | 0 mm | - | 1131 W/m² | - |
| 1777831983 | 25° C | 43% | 1015.9 hPa | 0 mm | - | 1131 W/m² | - |
| 1777831922 | 25° C | 42% | 1015.8 hPa | 0 mm | - | 1138 W/m² | - |
| 1777831863 | 25° C | 42% | 1015.8 hPa | 0 mm | - | 1138 W/m² | - |
| 1777831805 | 25.56° C | 42% | 1015.9 hPa | 0 mm | - | 1138 W/m² | - |
| 1777831742 | 25.56° C | 42% | 1015.9 hPa | 0 mm | - | 1138 W/m² | - |
| 1777831684 | 25.56° C | 43% | 1015.9 hPa | 0 mm | - | 1139 W/m² | - |
| 1777831624 | 25.56° C | 42% | 1015.9 hPa | 0 mm | - | 1138 W/m² | - |
| 1777831563 | 25.56° C | 47% | 1015.9 hPa | 0 mm | - | 1138 W/m² | - |
| 1777831503 | 25.56° C | 47% | 1015.9 hPa | 0 mm | - | 1138 W/m² | - |
| 1777831444 | 25.56° C | 44% | 1015.9 hPa | 0 mm | - | 1132 W/m² | - |
* Rain latest hour (hover to see other rain measurements)
** Current wind speed in m/s (hover to see current wind gust speed)